| time (UTC) | temp C | wind direction | speed KPH | gust KPH | rain 1hr cm | rain 24hr cm | rain mn cm | humidity % | barometer mb |
| 20260510154749 | 31 | 150 | 1.6 | 1.6 | 0.00 | 0.00 | 0.00 | 15 | 1013.3 |
| 20260510154246 | 30 | 82 | 1.6 | 1.6 | 0.00 | 0.00 | 0.00 | 16 | 1013.0 |
| 20260510153741 | 29 | 167 | 1.6 | 1.6 | 0.00 | 0.00 | 0.00 | 18 | 1013.1 |
| 20260510153237 | 30 | 167 | 1.6 | 1.6 | 0.00 | 0.00 | 0.00 | 18 | 1013.2 |
| 20260510152734 | 30 | 61 | 0.0 | 0.0 | 0.00 | 0.00 | 0.00 | 18 | 1013.1 |
| 20260510152230 | 30 | 82 | 0.0 | 0.0 | 0.00 | 0.00 | 0.00 | 18 | 1012.9 |
| 20260510151726 | 29 | 82 | 0.0 | 0.0 | 0.00 | 0.00 | 0.00 | 19 | 1013.4 |
| 20260510151225 | 28 | 81 | 0.0 | 0.0 | 0.00 | 0.00 | 0.00 | 19 | 1013.0 |
| 20260510150721 | 28 | 94 | 0.0 | 0.0 | 0.00 | 0.00 | 0.00 | 19 | 1012.8 |
| 20260510150216 | 27 | 97 | 0.0 | 0.0 | 0.00 | 0.00 | 0.00 | 20 | 1013.1 |
| 20260510145713 | 27 | 80 | 1.6 | 1.6 | 0.00 | 0.00 | 0.00 | 20 | 1012.9 |
| 20260510145209 | 27 | 81 | 0.0 | 0.0 | 0.00 | 0.00 | 0.00 | 21 | 1013.1 |
| 20260510144705 | 26 | 70 | 0.0 | 0.0 | 0.00 | 0.00 | 0.00 | 21 | 1013.0 |
| 20260510144202 | 26 | 152 | 0.0 | 1.6 | 0.00 | 0.00 | 0.00 | 22 | 1012.9 |
| 20260510143657 | 26 | 150 | 1.6 | 1.6 | 0.00 | 0.00 | 0.00 | 22 | 1013.1 |
| 20260510143154 | 25 | 107 | 1.6 | 1.6 | 0.00 | 0.00 | 0.00 | 23 | 1013.0 |
| 20260510142650 | 25 | 99 | 1.6 | 1.6 | 0.00 | 0.00 | 0.00 | 23 | 1012.8 |
| 20260510142147 | 25 | 101 | 1.6 | 1.6 | 0.00 | 0.00 | 0.00 | 24 | 1012.9 |
| 20260510141644 | 24 | 117 | 1.6 | 1.6 | 0.00 | 0.00 | 0.00 | 25 | 1013.0 |
| 20260510141142 | 23 | 84 | 0.0 | 0.0 | 0.00 | 0.00 | 0.00 | 27 | 1013.0 |
| 20260510140638 | 23 | 79 | 0.0 | 0.0 | 0.00 | 0.00 | 0.00 | 28 | 1012.6 |
| 20260510140137 | 23 | 79 | 0.0 | 0.0 | 0.00 | 0.00 | 0.00 | 29 | 1012.5 |
| 20260510135633 | 23 | 78 | 0.0 | 0.0 | 0.00 | 0.00 | 0.00 | 28 | 1012.6 |
| 20260510135129 | 23 | 84 | 0.0 | 0.0 | 0.00 | 0.00 | 0.00 | 28 | 1012.9 |
| 20260510134626 | 22 | 84 | 0.0 | 0.0 | 0.00 | 0.00 | 0.00 | 29 | 1012.8 |
| 20260510134123 | 22 | 84 | 0.0 | 0.0 | 0.00 | 0.00 | 0.00 | 30 | 1012.6 |
| 20260510133620 | 21 | 82 | 0.0 | 0.0 | 0.00 | 0.00 | 0.00 | 31 | 1012.7 |
| 20260510133115 | 21 | 83 | 0.0 | 0.0 | 0.00 | 0.00 | 0.00 | 31 | 1012.4 |
| 20260510132612 | 20 | 83 | 3.2 | 3.2 | 0.00 | 0.00 | 0.00 | 31 | 1012.7 |
| 20260510132109 | 20 | 107 | 0.0 | 0.0 | 0.00 | 0.00 | 0.00 | 31 | 1012.4 |
| 20260510131607 | 19 | 108 | 0.0 | 0.0 | 0.00 | 0.00 | 0.00 | 33 | 1012.6 |
| 20260510131104 | 18 | 108 | 0.0 | 0.0 | 0.00 | 0.00 | 0.00 | 34 | 1012.5 |
| 20260510130600 | 18 | 108 | 0.0 | 0.0 | 0.00 | 0.00 | 0.00 | 34 | 1012.2 |
| 20260510130058 | 17 | 107 | 0.0 | 0.0 | 0.00 | 0.00 | 0.00 | 36 | 1012.2 |
| 20260510125554 | 17 | 109 | 0.0 | 0.0 | 0.00 | 0.00 | 0.00 | 36 | 1012.0 |
| 20260510125050 | 17 | 109 | 0.0 | 0.0 | 0.00 | 0.00 | 0.00 | 35 | 1012.2 |
| 20260510124547 | 17 | 109 | 0.0 | 0.0 | 0.00 | 0.00 | 0.00 | 35 | 1011.9 |
| 20260510124044 | 17 | 105 | 1.6 | 3.2 | 0.00 | 0.00 | 0.00 | 35 | 1012.1 |
| 20260510123539 | 17 | 88 | 0.0 | 0.0 | 0.00 | 0.00 | 0.00 | 35 | 1012.1 |
| 20260510123035 | 17 | 86 | 0.0 | 0.0 | 0.00 | 0.00 | 0.00 | 35 | 1012.0 |
| 20260510122531 | 17 | 83 | 0.0 | 0.0 | 0.00 | 0.00 | 0.00 | 36 | 1011.7 |
| 20260510122027 | 16 | 82 | 1.6 | 1.6 | 0.00 | 0.00 | 0.00 | 36 | 1011.9 |
| 20260510121525 | 17 | 82 | 0.0 | 0.0 | 0.00 | 0.00 | 0.00 | 35 | 1011.8 |
| 20260510121022 | 17 | 82 | 0.0 | 1.6 | 0.00 | 0.00 | 0.00 | 35 | 1011.6 |
| 20260510120519 | 16 | 82 | 0.0 | 1.6 | 0.00 | 0.00 | 0.00 | 37 | 1011.8 |
| 20260510120015 | 17 | 80 | 1.6 | 1.6 | 0.00 | 0.00 | 0.00 | 37 | 1011.7 |
| 20260510115512 | 17 | 86 | 1.6 | 3.2 | 0.00 | 0.00 | 0.00 | 38 | 1011.6 |
| 20260510115008 | 17 | 87 | 0.0 | 0.0 | 0.00 | 0.00 | 0.00 | 37 | 1011.3 |
| 20260510114505 | 17 | 87 | 0.0 | 0.0 | 0.00 | 0.00 | 0.00 | 36 | 1011.5 |
| 20260510114001 | 17 | 87 | 0.0 | 0.0 | 0.00 | 0.00 | 0.00 | 37 | 1011.4 |
| 20260510113456 | 17 | 87 | 0.0 | 0.0 | 0.00 | 0.00 | 0.00 | 37 | 1011.4 |
| 20260510112954 | 17 | 88 | 0.0 | 0.0 | 0.00 | 0.00 | 0.00 | 36 | 1011.5 |
| 20260510112451 | 17 | 88 | 0.0 | 0.0 | 0.00 | 0.00 | 0.00 | 36 | 1011.4 |
| 20260510111947 | 17 | 88 | 0.0 | 0.0 | 0.00 | 0.00 | 0.00 | 38 | 1011.4 |
| 20260510111443 | 17 | 88 | 0.0 | 0.0 | 0.00 | 0.00 | 0.00 | 37 | 1011.2 |
| 20260510110940 | 17 | 87 | 0.0 | 0.0 | 0.00 | 0.00 | 0.00 | 37 | 1011.2 |
| 20260510110436 | 17 | 87 | 0.0 | 0.0 | 0.00 | 0.00 | 0.00 | 36 | 1011.2 |
| 20260510105932 | 17 | 87 | 0.0 | 0.0 | 0.00 | 0.00 | 0.00 | 35 | 1011.3 |
| 20260510105427 | 17 | 86 | 0.0 | 0.0 | 0.00 | 0.00 | 0.00 | 36 | 1011.4 |
| 20260510104922 | 17 | 85 | 0.0 | 0.0 | 0.00 | 0.00 | 0.00 | 35 | 1011.2 |
| 20260510104420 | 18 | 85 | 0.0 | 1.6 | 0.00 | 0.00 | 0.00 | 35 | 1011.3 |
| 20260510103916 | 17 | 85 | 0.0 | 0.0 | 0.00 | 0.00 | 0.00 | 35 | 1011.4 |
| 20260510103414 | 17 | 85 | 1.6 | 1.6 | 0.00 | 0.00 | 0.00 | 35 | 1011.3 |
| 20260510102908 | 17 | 85 | 0.0 | 0.0 | 0.00 | 0.00 | 0.00 | 36 | 1011.5 |
| 20260510102404 | 17 | 85 | 0.0 | 0.0 | 0.00 | 0.00 | 0.00 | 36 | 1011.5 |
| 20260510101902 | 18 | 85 | 0.0 | 0.0 | 0.00 | 0.00 | 0.00 | 34 | 1011.2 |
| 20260510101400 | 18 | 85 | 0.0 | 0.0 | 0.00 | 0.00 | 0.00 | 34 | 1011.3 |
| 20260510100856 | 18 | 85 | 0.0 | 0.0 | 0.00 | 0.00 | 0.00 | 33 | 1011.2 |
| 20260510100354 | 18 | 85 | 0.0 | 0.0 | 0.00 | 0.00 | 0.00 | 32 | 1011.2 |
| 20260510095850 | 18 | 85 | 0.0 | 0.0 | 0.00 | 0.00 | 0.00 | 32 | 1011.2 |
| 20260510095344 | 18 | 85 | 0.0 | 0.0 | 0.00 | 0.00 | 0.00 | 32 | 1010.9 |
| 20260510094844 | 19 | 84 | 0.0 | 0.0 | 0.00 | 0.00 | 0.00 | 31 | 1011.1 |
| 20260510094340 | 19 | 84 | 0.0 | 0.0 | 0.00 | 0.00 | 0.00 | 31 | 1010.9 |
| 20260510093836 | 19 | 83 | 0.0 | 0.0 | 0.00 | 0.00 | 0.00 | 31 | 1011.0 |
| 20260510093332 | 20 | 83 | 0.0 | 0.0 | 0.00 | 0.00 | 0.00 | 30 | 1011.1 |
| 20260510092828 | 19 | 91 | 0.0 | 0.0 | 0.00 | 0.00 | 0.00 | 30 | 1010.9 |
| 20260510092324 | 19 | 90 | 0.0 | 0.0 | 0.00 | 0.00 | 0.00 | 30 | 1011.0 |
| 20260510091820 | 19 | 68 | 0.0 | 0.0 | 0.00 | 0.00 | 0.00 | 31 | 1011.0 |
| 20260510091318 | 20 | 65 | 0.0 | 0.0 | 0.00 | 0.00 | 0.00 | 31 | 1011.0 |
| 20260510090814 | 20 | 65 | 0.0 | 0.0 | 0.00 | 0.00 | 0.00 | 30 | 1010.7 |
| 20260510090311 | 20 | 65 | 0.0 | 0.0 | 0.00 | 0.00 | 0.00 | 29 | 1010.7 |
| 20260510085807 | 20 | 64 | 0.0 | 0.0 | 0.00 | 0.00 | 0.00 | 29 | 1011.2 |
| 20260510085301 | 20 | 87 | 1.6 | 1.6 | 0.00 | 0.00 | 0.00 | 30 | 1010.9 |
| 20260510084757 | 21 | 94 | 0.0 | 0.0 | 0.00 | 0.00 | 0.00 | 28 | 1011.1 |
| 20260510084254 | 21 | 96 | 0.0 | 0.0 | 0.00 | 0.00 | 0.00 | 28 | 1011.0 |
| 20260510083751 | 21 | 96 | 0.0 | 0.0 | 0.00 | 0.00 | 0.00 | 27 | 1010.6 |
| 20260510083248 | 21 | 96 | 0.0 | 0.0 | 0.00 | 0.00 | 0.00 | 27 | 1011.1 |
| 20260510082743 | 21 | 96 | 0.0 | 0.0 | 0.00 | 0.00 | 0.00 | 25 | 1010.9 |
| 20260510082240 | 22 | 81 | 1.6 | 1.6 | 0.00 | 0.00 | 0.00 | 25 | 1010.7 |
| 20260510081739 | 22 | 70 | 1.6 | 1.6 | 0.00 | 0.00 | 0.00 | 25 | 1010.6 |
| 20260510081236 | 22 | 70 | 1.6 | 0.0 | 0.00 | 0.00 | 0.00 | 24 | 1010.7 |
| 20260510080731 | 22 | 86 | 3.2 | 3.2 | 0.00 | 0.00 | 0.00 | 23 | 1011.1 |
| 20260510080227 | 22 | 140 | 0.0 | 0.0 | 0.00 | 0.00 | 0.00 | 24 | 1011.0 |
| 20260510075723 | 22 | 141 | 0.0 | 0.0 | 0.00 | 0.00 | 0.00 | 25 | 1010.9 |
| 20260510075221 | 22 | 143 | 1.6 | 0.0 | 0.00 | 0.00 | 0.00 | 25 | 1011.1 |
| 20260510074718 | 22 | 56 | 0.0 | 0.0 | 0.00 | 0.00 | 0.00 | 25 | 1010.7 |
| 20260510074214 | 22 | 56 | 0.0 | 0.0 | 0.00 | 0.00 | 0.00 | 24 | 1010.7 |
| 20260510073711 | 22 | 54 | 0.0 | 0.0 | 0.00 | 0.00 | 0.00 | 24 | 1011.2 |
| 20260510073207 | 22 | 48 | 0.0 | 0.0 | 0.00 | 0.00 | 0.00 | 22 | 1011.0 |
| 20260510072703 | 23 | 293 | 0.0 | 0.0 | 0.00 | 0.00 | 0.00 | 23 | 1011.1 |
| 20260510072159 | 22 | 293 | 1.6 | 1.6 | 0.00 | 0.00 | 0.00 | 25 | 1011.1 |
| 20260510071656 | 22 | 293 | 0.0 | 0.0 | 0.00 | 0.00 | 0.00 | 24 | 1011.1 |
| 20260510071153 | 23 | 293 | 0.0 | 0.0 | 0.00 | 0.00 | 0.00 | 25 | 1011.0 |
| 20260510070650 | 23 | 293 | 0.0 | 0.0 | 0.00 | 0.00 | 0.00 | 24 | 1011.1 |
| 20260510070148 | 23 | 293 | 0.0 | 0.0 | 0.00 | 0.00 | 0.00 | 23 | 1011.0 |
| 20260510065643 | 23 | 293 | 0.0 | 0.0 | 0.00 | 0.00 | 0.00 | 21 | 1011.0 |
| 20260510065139 | 23 | 293 | 0.0 | 0.0 | 0.00 | 0.00 | 0.00 | 21 | 1010.7 |
| 20260510064636 | 23 | 293 | 0.0 | 0.0 | 0.00 | 0.00 | 0.00 | 23 | 1011.1 |
| 20260510064133 | 23 | 293 | 0.0 | 0.0 | 0.00 | 0.00 | 0.00 | 22 | 1010.9 |
| 20260510063630 | 24 | 293 | 0.0 | 0.0 | 0.00 | 0.00 | 0.00 | 21 | 1010.7 |
| 20260510063127 | 25 | 293 | 0.0 | 0.0 | 0.00 | 0.00 | 0.00 | 20 | 1010.7 |
| 20260510062622 | 25 | 293 | 0.0 | 0.0 | 0.00 | 0.00 | 0.00 | 20 | 1010.5 |
| 20260510062118 | 26 | 293 | 0.0 | 0.0 | 0.00 | 0.00 | 0.00 | 18 | 1010.6 |
| 20260510061614 | 26 | 293 | 0.0 | 0.0 | 0.00 | 0.00 | 0.00 | 17 | 1010.3 |
| 20260510061112 | 26 | 281 | 3.2 | 3.2 | 0.00 | 0.00 | 0.00 | 17 | 1010.4 |
| 20260510060608 | 25 | 319 | 0.0 | 0.0 | 0.00 | 0.00 | 0.00 | 18 | 1010.2 |
| 20260510060105 | 24 | 276 | 1.6 | 1.6 | 0.00 | 0.00 | 0.00 | 19 | 1010.4 |
| 20260510055600 | 23 | 260 | 3.2 | 3.2 | 0.00 | 0.00 | 0.00 | 22 | 1010.1 |
| 20260510055059 | 22 | 6 | 0.0 | 0.0 | 0.00 | 0.00 | 0.00 | 26 | 1010.1 |
| 20260510054554 | 22 | 6 | 0.0 | 0.0 | 0.00 | 0.00 | 0.00 | 25 | 1010.1 |
| 20260510054050 | 22 | 6 | 0.0 | 0.0 | 0.00 | 0.00 | 0.00 | 27 | 1010.0 |
| 20260510053549 | 22 | 6 | 0.0 | 0.0 | 0.00 | 0.00 | 0.00 | 26 | 1009.6 |
| 20260510053047 | 23 | 6 | 0.0 | 0.0 | 0.00 | 0.00 | 0.00 | 26 | 1009.7 |
| 20260510052542 | 23 | 6 | 0.0 | 0.0 | 0.00 | 0.00 | 0.00 | 25 | 1009.6 |
| 20260510052039 | 23 | 6 | 0.0 | 0.0 | 0.00 | 0.00 | 0.00 | 25 | 1009.7 |
| 20260510051534 | 23 | 6 | 0.0 | 0.0 | 0.00 | 0.00 | 0.00 | 23 | 1009.6 |
| 20260510051031 | 24 | 6 | 0.0 | 0.0 | 0.00 | 0.00 | 0.00 | 22 | 1009.9 |
| 20260510050528 | 24 | 6 | 0.0 | 0.0 | 0.00 | 0.00 | 0.00 | 22 | 1009.8 |
| 20260510050026 | 25 | 6 | 0.0 | 0.0 | 0.00 | 0.00 | 0.00 | 22 | 1009.5 |
| 20260510045523 | 25 | 6 | 0.0 | 0.0 | 0.00 | 0.00 | 0.00 | 22 | 1009.3 |
| 20260510045018 | 25 | 6 | 0.0 | 0.0 | 0.00 | 0.00 | 0.00 | 21 | 1009.3 |
| 20260510044515 | 25 | 6 | 0.0 | 0.0 | 0.00 | 0.00 | 0.00 | 20 | 1009.5 |
| 20260510044013 | 25 | 6 | 0.0 | 0.0 | 0.00 | 0.00 | 0.00 | 22 | 1009.3 |
| 20260510043508 | 25 | 6 | 0.0 | 0.0 | 0.00 | 0.00 | 0.00 | 23 | 1009.2 |
| 20260510043003 | 25 | 6 | 0.0 | 0.0 | 0.00 | 0.00 | 0.00 | 22 | 1009.3 |
| 20260510042457 | 25 | 6 | 0.0 | 0.0 | 0.00 | 0.00 | 0.00 | 22 | 1009.1 |
| 20260510041953 | 25 | 6 | 0.0 | 0.0 | 0.00 | 0.00 | 0.00 | 22 | 1009.3 |
| 20260510041450 | 25 | 6 | 0.0 | 0.0 | 0.00 | 0.00 | 0.00 | 22 | 1009.1 |
| 20260510040948 | 25 | 6 | 0.0 | 0.0 | 0.00 | 0.00 | 0.00 | 22 | 1009.0 |
| 20260510040444 | 25 | 6 | 1.6 | 1.6 | 0.00 | 0.00 | 0.00 | 20 | 1009.0 |
| 20260510035940 | 25 | 6 | 0.0 | 0.0 | 0.00 | 0.00 | 0.00 | 21 | 1008.9 |
| 20260510035437 | 26 | 6 | 0.0 | 0.0 | 0.00 | 0.00 | 0.00 | 20 | 1009.0 |
| 20260510034936 | 26 | 6 | 0.0 | 0.0 | 0.00 | 0.00 | 0.00 | 20 | 1008.7 |
| 20260510034436 | 26 | 6 | 0.0 | 0.0 | 0.00 | 0.00 | 0.00 | 20 | 1008.5 |
| 20260510033931 | 26 | 6 | 0.0 | 0.0 | 0.00 | 0.00 | 0.00 | 20 | 1008.6 |
| 20260510033427 | 26 | 6 | 0.0 | 0.0 | 0.00 | 0.00 | 0.00 | 19 | 1008.4 |
| 20260510032925 | 26 | 5 | 1.6 | 1.6 | 0.00 | 0.00 | 0.00 | 19 | 1008.4 |
| 20260510032421 | 26 | 6 | 0.0 | 0.0 | 0.00 | 0.00 | 0.00 | 19 | 1008.4 |
| 20260510031917 | 27 | 5 | 0.0 | 0.0 | 0.00 | 0.00 | 0.00 | 19 | 1008.5 |
| 20260510031412 | 27 | 5 | 0.0 | 0.0 | 0.00 | 0.00 | 0.00 | 18 | 1008.4 |
| 20260510030907 | 27 | 5 | 0.0 | 0.0 | 0.00 | 0.00 | 0.00 | 17 | 1008.1 |
| 20260510030403 | 27 | 5 | 0.0 | 0.0 | 0.00 | 0.00 | 0.00 | 16 | 1007.9 |
| 20260510025901 | 27 | 5 | 0.0 | 0.0 | 0.00 | 0.00 | 0.00 | 16 | 1008.1 |
| 20260510025359 | 28 | 5 | 0.0 | 0.0 | 0.00 | 0.00 | 0.00 | 16 | 1007.9 |
| 20260510024855 | 28 | 5 | 0.0 | 0.0 | 0.00 | 0.00 | 0.00 | 15 | 1008.1 |
| 20260510024352 | 28 | 5 | 0.0 | 0.0 | 0.00 | 0.00 | 0.00 | 15 | 1007.9 |
| 20260510023848 | 29 | 5 | 0.0 | 0.0 | 0.00 | 0.00 | 0.00 | 14 | 1008.1 |
| 20260510023344 | 30 | 5 | 0.0 | 0.0 | 0.00 | 0.00 | 0.00 | 13 | 1007.7 |
| 20260510022842 | 30 | 5 | 0.0 | 0.0 | 0.00 | 0.00 | 0.00 | 13 | 1007.9 |
| 20260510022341 | 31 | 3 | 0.0 | 0.0 | 0.00 | 0.00 | 0.00 | 13 | 1007.6 |
| 20260510021840 | 31 | 3 | 0.0 | 0.0 | 0.00 | 0.00 | 0.00 | 12 | 1007.7 |
| 20260510021339 | 32 | 3 | 0.0 | 0.0 | 0.00 | 0.00 | 0.00 | 11 | 1007.5 |
| 20260510020834 | 32 | 339 | 1.6 | 1.6 | 0.00 | 0.00 | 0.00 | 11 | 1007.6 |
| 20260510020329 | 32 | 7 | 1.6 | 1.6 | 0.00 | 0.00 | 0.00 | 11 | 1007.6 |
| 20260510015825 | 33 | 304 | 3.2 | 4.8 | 0.00 | 0.00 | 0.00 | 11 | 1007.5 |
| 20260510015321 | 33 | 7 | 3.2 | 3.2 | 0.00 | 0.00 | 0.00 | 10 | 1007.6 |
| 20260510014816 | 34 | 8 | 0.0 | 0.0 | 0.00 | 0.00 | 0.00 | 10 | 1007.4 |
| 20260510014314 | 34 | 306 | 4.8 | 4.8 | 0.00 | 0.00 | 0.00 | 10 | 1007.4 |
| 20260510013809 | 35 | 355 | 3.2 | 3.2 | 0.00 | 0.00 | 0.00 | 10 | 1007.3 |
| 20260510013305 | 35 | 354 | 3.2 | 3.2 | 0.00 | 0.00 | 0.00 | 10 | 1007.6 |
| 20260510012800 | 35 | 346 | 3.2 | 3.2 | 0.00 | 0.00 | 0.00 | 10 | 1007.6 |
| 20260510012255 | 35 | 8 | 3.2 | 4.8 | 0.00 | 0.00 | 0.00 | 10 | 1007.3 |
| 20260510011755 | 35 | 292 | 3.2 | 3.2 | 0.00 | 0.00 | 0.00 | 10 | 1007.3 |
| 20260510011251 | 35 | 321 | 1.6 | 1.6 | 0.00 | 0.00 | 0.00 | 10 | 1007.4 |
| 20260510010748 | 35 | 4 | 3.2 | 3.2 | 0.00 | 0.00 | 0.00 | 10 | 1007.2 |
| 20260510010244 | 35 | 351 | 3.2 | 3.2 | 0.00 | 0.00 | 0.00 | 10 | 1007.4 |
| 20260510005742 | 36 | 313 | 8.0 | 11.3 | 0.00 | 0.00 | 0.00 | 10 | 1007.3 |
| 20260510005237 | 36 | 337 | 3.2 | 3.2 | 0.00 | 0.00 | 0.00 | 10 | 1007.5 |
| 20260510004736 | 36 | 328 | 1.6 | 3.2 | 0.00 | 0.00 | 0.00 | 10 | 1007.2 |
| 20260510004233 | 36 | 33 | 4.8 | 4.8 | 0.00 | 0.00 | 0.00 | 10 | 1007.3 |
| 20260510003730 | 36 | 330 | 3.2 | 4.8 | 0.00 | 0.00 | 0.00 | 10 | 1007.4 |
| 20260510003227 | 36 | 294 | 1.6 | 1.6 | 0.00 | 0.00 | 0.00 | 10 | 1007.4 |
| 20260510002725 | 36 | 328 | 4.8 | 8.0 | 0.00 | 0.00 | 0.00 | 10 | 1007.7 |
| 20260510002223 | 36 | 327 | 4.8 | 8.0 | 0.00 | 0.00 | 0.00 | 10 | 1007.3 |
| 20260510001720 | 36 | 303 | 4.8 | 4.8 | 0.00 | 0.00 | 0.00 | 10 | 1007.5 |
| 20260510001218 | 37 | 287 | 1.6 | 1.6 | 0.00 | 0.00 | 0.00 | 10 | 1007.5 |
| 20260510000714 | 36 | 293 | 1.6 | 4.8 | 0.00 | 0.00 | 0.00 | 10 | 1007.5 |
| 20260510000211 | 36 | 288 | 1.6 | 1.6 | 0.00 | 0.00 | 0.00 | 10 | 1007.6 |
| 20260509235708 | 36 | 357 | 9.7 | 12.9 | 0.00 | 0.00 | 0.00 | 10 | 1007.6 |
| 20260509235204 | 37 | 307 | 1.6 | 3.2 | 0.00 | 0.00 | 0.00 | 10 | 1007.5 |
| 20260509234701 | 37 | 324 | 6.4 | 9.7 | 0.00 | 0.00 | 0.00 | 10 | 1007.8 |
| 20260509234157 | 37 | 270 | 8.0 | 11.3 | 0.00 | 0.00 | 0.00 | 10 | 1007.8 |
| 20260509233655 | 36 | 246 | 3.2 | 3.2 | 0.00 | 0.00 | 0.00 | 10 | 1007.6 |
| 20260509233153 | 37 | 312 | 12.9 | 14.5 | 0.00 | 0.00 | 0.00 | 10 | 1007.7 |
| 20260509232649 | 37 | 299 | 1.6 | 1.6 | 0.00 | 0.00 | 0.00 | 10 | 1007.6 |
| 20260509232146 | 36 | 290 | 4.8 | 11.3 | 0.00 | 0.00 | 0.00 | 10 | 1007.7 |
| 20260509231643 | 36 | 21 | 3.2 | 4.8 | 0.00 | 0.00 | 0.00 | 10 | 1007.8 |
| 20260509231140 | 37 | 245 | 4.8 | 4.8 | 0.00 | 0.00 | 0.00 | 10 | 1007.9 |
| 20260509230637 | 37 | 313 | 6.4 | 8.0 | 0.00 | 0.00 | 0.00 | 10 | 1007.8 |
| 20260509230134 | 37 | 297 | 8.0 | 9.7 | 0.00 | 0.00 | 0.00 | 10 | 1008.2 |
| 20260509225630 | 37 | 333 | 1.6 | 1.6 | 0.00 | 0.00 | 0.00 | 10 | 1008.3 |
| 20260509225125 | 37 | 306 | 3.2 | 3.2 | 0.00 | 0.00 | 0.00 | 10 | 1008.2 |
| 20260509224620 | 37 | 296 | 3.2 | 3.2 | 0.00 | 0.00 | 0.00 | 10 | 1008.2 |
| 20260509224118 | 37 | 296 | 4.8 | 8.0 | 0.00 | 0.00 | 0.00 | 10 | 1008.4 |
| 20260509223615 | 37 | 291 | 8.0 | 9.7 | 0.00 | 0.00 | 0.00 | 10 | 1008.4 |
| 20260509223113 | 37 | 294 | 3.2 | 3.2 | 0.00 | 0.00 | 0.00 | 10 | 1008.2 |
| 20260509222608 | 37 | 280 | 4.8 | 8.0 | 0.00 | 0.00 | 0.00 | 10 | 1008.5 |
| 20260509222104 | 37 | 306 | 3.2 | 3.2 | 0.00 | 0.00 | 0.00 | 10 | 1008.7 |
| 20260509221600 | 37 | 10 | 6.4 | 8.0 | 0.00 | 0.00 | 0.00 | 10 | 1008.6 |
| 20260509221056 | 37 | 20 | 8.0 | 9.7 | 0.00 | 0.00 | 0.00 | 10 | 1008.7 |
| 20260509220552 | 37 | 299 | 6.4 | 9.7 | 0.00 | 0.00 | 0.00 | 10 | 1008.5 |
| 20260509220049 | 37 | 304 | 6.4 | 8.0 | 0.00 | 0.00 | 0.00 | 10 | 1008.6 |
| 20260509215544 | 37 | 294 | 8.0 | 11.3 | 0.00 | 0.00 | 0.00 | 10 | 1008.7 |
| 20260509215042 | 37 | 33 | 0.0 | 0.0 | 0.00 | 0.00 | 0.00 | 10 | 1009.0 |
| 20260509214539 | 37 | 231 | 1.6 | 1.6 | 0.00 | 0.00 | 0.00 | 10 | 1008.9 |
| 20260509214036 | 37 | 286 | 1.6 | 1.6 | 0.00 | 0.00 | 0.00 | 10 | 1009.2 |
| 20260509213532 | 36 | 307 | 8.0 | 9.7 | 0.00 | 0.00 | 0.00 | 10 | 1009.2 |
| 20260509213029 | 36 | 295 | 6.4 | 9.7 | 0.00 | 0.00 | 0.00 | 10 | 1009.2 |
| 20260509212526 | 37 | 260 | 4.8 | 4.8 | 0.00 | 0.00 | 0.00 | 10 | 1009.2 |
| 20260509212023 | 37 | 308 | 3.2 | 4.8 | 0.00 | 0.00 | 0.00 | 10 | 1009.2 |
| 20260509211518 | 36 | 333 | 4.8 | 8.0 | 0.00 | 0.00 | 0.00 | 10 | 1009.6 |
| 20260509211016 | 37 | 307 | 4.8 | 4.8 | 0.00 | 0.00 | 0.00 | 10 | 1009.6 |
| 20260509210512 | 37 | 253 | 4.8 | 8.0 | 0.00 | 0.00 | 0.00 | 10 | 1009.6 |
| 20260509210008 | 36 | 305 | 3.2 | 4.8 | 0.00 | 0.00 | 0.00 | 10 | 1009.7 |
| 20260509205503 | 36 | 312 | 4.8 | 3.2 | 0.00 | 0.00 | 0.00 | 10 | 1009.9 |
| 20260509204958 | 36 | 13 | 3.2 | 3.2 | 0.00 | 0.00 | 0.00 | 10 | 1009.8 |
| 20260509204455 | 36 | 297 | 3.2 | 4.8 | 0.00 | 0.00 | 0.00 | 10 | 1009.9 |
| 20260509203951 | 36 | 325 | 9.7 | 12.9 | 0.00 | 0.00 | 0.00 | 10 | 1010.1 |
| 20260509203447 | 36 | 256 | 6.4 | 8.0 | 0.00 | 0.00 | 0.00 | 10 | 1010.0 |
| 20260509202945 | 36 | 283 | 3.2 | 4.8 | 0.00 | 0.00 | 0.00 | 11 | 1010.1 |
| 20260509202441 | 36 | 308 | 4.8 | 4.8 | 0.00 | 0.00 | 0.00 | 10 | 1010.0 |
| 20260509201936 | 36 | 303 | 6.4 | 8.0 | 0.00 | 0.00 | 0.00 | 11 | 1010.0 |
| 20260509201431 | 36 | 312 | 6.4 | 16.1 | 0.00 | 0.00 | 0.00 | 11 | 1010.2 |
| 20260509200929 | 36 | 287 | 9.7 | 12.9 | 0.00 | 0.00 | 0.00 | 10 | 1010.3 |
| 20260509200428 | 36 | 10 | 8.0 | 12.9 | 0.00 | 0.00 | 0.00 | 10 | 1010.6 |
| 20260509195926 | 36 | 326 | 8.0 | 11.3 | 0.00 | 0.00 | 0.00 | 11 | 1010.5 |
| 20260509195421 | 36 | 355 | 6.4 | 11.3 | 0.00 | 0.00 | 0.00 | 11 | 1010.6 |
| 20260509194920 | 36 | 313 | 3.2 | 3.2 | 0.00 | 0.00 | 0.00 | 11 | 1010.7 |
| 20260509194417 | 35 | 291 | 8.0 | 11.3 | 0.00 | 0.00 | 0.00 | 11 | 1010.7 |
| 20260509193914 | 36 | 290 | 8.0 | 9.7 | 0.00 | 0.00 | 0.00 | 11 | 1010.6 |
| 20260509193413 | 36 | 322 | 4.8 | 4.8 | 0.00 | 0.00 | 0.00 | 11 | 1010.9 |
| 20260509192910 | 35 | 298 | 4.8 | 3.2 | 0.00 | 0.00 | 0.00 | 12 | 1010.7 |
| 20260509192406 | 35 | 325 | 8.0 | 9.7 | 0.00 | 0.00 | 0.00 | 12 | 1010.9 |
| 20260509191901 | 35 | 259 | 6.4 | 8.0 | 0.00 | 0.00 | 0.00 | 12 | 1011.1 |
| 20260509191357 | 35 | 326 | 6.4 | 9.7 | 0.00 | 0.00 | 0.00 | 12 | 1010.9 |
| 20260509190853 | 35 | 259 | 4.8 | 4.8 | 0.00 | 0.00 | 0.00 | 12 | 1011.1 |
| 20260509190350 | 35 | 286 | 6.4 | 9.7 | 0.00 | 0.00 | 0.00 | 12 | 1011.3 |
| 20260509185848 | 35 | 307 | 9.7 | 12.9 | 0.00 | 0.00 | 0.00 | 11 | 1011.2 |
| 20260509185344 | 35 | 305 | 4.8 | 4.8 | 0.00 | 0.00 | 0.00 | 11 | 1011.3 |
| 20260509184842 | 35 | 14 | 3.2 | 3.2 | 0.00 | 0.00 | 0.00 | 12 | 1011.4 |
| 20260509184338 | 35 | 268 | 4.8 | 9.7 | 0.00 | 0.00 | 0.00 | 12 | 1011.6 |
| 20260509183835 | 34 | 314 | 1.6 | 3.2 | 0.00 | 0.00 | 0.00 | 13 | 1011.4 |
| 20260509183330 | 34 | 211 | 1.6 | 1.6 | 0.00 | 0.00 | 0.00 | 13 | 1011.4 |
| 20260509182827 | 33 | 124 | 1.6 | 1.6 | 0.00 | 0.00 | 0.00 | 13 | 1011.7 |
| 20260509182324 | 33 | 246 | 0.0 | 0.0 | 0.00 | 0.00 | 0.00 | 14 | 1011.8 |
| 20260509181821 | 33 | 357 | 1.6 | 1.6 | 0.00 | 0.00 | 0.00 | 15 | 1012.0 |
| 20260509181318 | 33 | 324 | 1.6 | 1.6 | 0.00 | 0.00 | 0.00 | 15 | 1012.2 |
| 20260509180815 | 33 | 297 | 4.8 | 3.2 | 0.00 | 0.00 | 0.00 | 15 | 1012.2 |
| 20260509180312 | 33 | 2 | 3.2 | 4.8 | 0.00 | 0.00 | 0.00 | 15 | 1012.1 |
| 20260509175808 | 32 | 25 | 0.0 | 0.0 | 0.00 | 0.00 | 0.00 | 15 | 1012.5 |
| 20260509175306 | 32 | 256 | 1.6 | 1.6 | 0.00 | 0.00 | 0.00 | 16 | 1012.4 |
| 20260509174801 | 32 | 192 | 1.6 | 1.6 | 0.00 | 0.00 | 0.00 | 16 | 1012.2 |
| 20260509174256 | 33 | 203 | 3.2 | 3.2 | 0.00 | 0.00 | 0.00 | 16 | 1012.5 |
| 20260509173752 | 32 | 331 | 1.6 | 1.6 | 0.00 | 0.00 | 0.00 | 16 | 1012.5 |
| 20260509173248 | 32 | 197 | 3.2 | 3.2 | 0.00 | 0.00 | 0.00 | 16 | 1012.5 |
| 20260509172744 | 32 | 168 | 0.0 | 1.6 | 0.00 | 0.00 | 0.00 | 17 | 1012.5 |
| 20260509172241 | 31 | 35 | 1.6 | 1.6 | 0.00 | 0.00 | 0.00 | 17 | 1012.5 |
| 20260509171736 | 31 | 20 | 1.6 | 1.6 | 0.00 | 0.00 | 0.00 | 18 | 1012.6 |
| 20260509171233 | 31 | 245 | 6.4 | 9.7 | 0.00 | 0.00 | 0.00 | 16 | 1012.8 |
| 20260509170730 | 32 | 1 | 4.8 | 3.2 | 0.00 | 0.00 | 0.00 | 16 | 1012.5 |
| 20260509170226 | 32 | 313 | 1.6 | 1.6 | 0.00 | 0.00 | 0.00 | 17 | 1012.7 |
| 20260509165724 | 31 | 223 | 1.6 | 1.6 | 0.00 | 0.00 | 0.00 | 17 | 1012.5 |
| 20260509165219 | 31 | 346 | 1.6 | 1.6 | 0.00 | 0.00 | 0.00 | 17 | 1012.6 |
| 20260509164716 | 31 | 67 | 0.0 | 0.0 | 0.00 | 0.00 | 0.00 | 17 | 1012.6 |
| 20260509164211 | 30 | 233 | 0.0 | 0.0 | 0.00 | 0.00 | 0.00 | 17 | 1012.6 |
| 20260509163709 | 31 | 149 | 1.6 | 1.6 | 0.00 | 0.00 | 0.00 | 17 | 1012.7 |
| 20260509163206 | 30 | 72 | 0.0 | 0.0 | 0.00 | 0.00 | 0.00 | 19 | 1012.6 |
| 20260509162703 | 30 | 105 | 1.6 | 1.6 | 0.00 | 0.00 | 0.00 | 18 | 1012.7 |
| 20260509162159 | 30 | 225 | 1.6 | 1.6 | 0.00 | 0.00 | 0.00 | 18 | 1012.7 |
| 20260509161654 | 30 | 184 | 1.6 | 1.6 | 0.00 | 0.00 | 0.00 | 18 | 1012.7 |
| 20260509161150 | 30 | 226 | 0.0 | 0.0 | 0.00 | 0.00 | 0.00 | 19 | 1012.7 |
| 20260509160646 | 30 | 185 | 1.6 | 3.2 | 0.00 | 0.00 | 0.00 | 19 | 1012.7 |
| 20260509160141 | 29 | 264 | 3.2 | 3.2 | 0.00 | 0.00 | 0.00 | 20 | 1012.9 |
| 20260509155638 | 28 | 77 | 0.0 | 0.0 | 0.00 | 0.00 | 0.00 | 20 | 1012.7 |